Weather History for Washington, IA

Change the Weather History Date:

Friday, March 1, 2013

  Actual Average Record
Temperature  
Mean Temperature 28 °F -  
Max Temperature 30 °F 37 °F 62 °F (2006)
Min Temperature 26 °F 23 °F 3 °F (2014)
Degree Days  
Heating Degree Days 37    
Moisture  
Dew Point 22 °F    
Average Humidity 79    
Maximum Humidity 100    
Minimum Humidity 60    
Precipitation  
Precipitation 0.00 in - - ()
Sea Level Pressure  
Sea Level Pressure 30.19 in    
Wind  
Wind Speed 10 mph (North)    
Max Wind Speed 14 mph    
Max Gust Speed 20 mph    
Visibility 9 miles    
Events Snow    
Averages and records for this station are not official NWS values.
T = Trace of Precipitation, MM = Missing Value Source: NWS Daily Summary

Daily Weather History Graph

Daily Weather History Graph

Search for Another Location

Airport:

Trip Planner

Search our weather history database for the weather conditions in past years. The results will help you decide how hot, cold, wet, or windy it might be!

Date:

Astronomy

Mar. 01, 2013 Rise Set
Actual Time 6:40 AM CST 5:57 PM CST
Civil Twilight 6:13 AM CST 6:25 PM CST
Nautical Twilight 5:41 AM CST 6:57 PM CST
Astronomical Twilight 5:09 AM CST 7:29 PM CST
Moon 10:35 PM CST (3/1) 8:24 AM CST (3/1)
Length of Visible Light 12h 12m
Length of Day
11h 17m
Waning Gibbous, 83% of the Moon is Illuminated
Mar 1
Waning Gibbous
Mar 4
Last Quarter
Mar 11
New
Mar 19
First Quarter
Mar 27
Full

Hourly Weather History & Observations

Time (CST) Temp. Windchill Dew Point Humidity Pressure Visibility Wind Dir Wind Speed Gust Speed Precip Events Conditions
12:15 AM 28.4 °F 19.1 °F 26.6 °F 93% 30.11 in 4.0 mi NNW 10.4 mph - N/A Snow Light Snow
12:35 AM 28.4 °F 19.1 °F 26.6 °F 93% 30.11 in 5.0 mi NNW 10.4 mph - N/A Snow Light Snow
12:55 AM 28.4 °F 19.1 °F 26.6 °F 93% 30.11 in 5.0 mi NNW 10.4 mph - N/A Snow Light Snow
1:15 AM 28.4 °F 19.7 °F 26.6 °F 93% 30.11 in 7.0 mi NNW 9.2 mph - N/A Snow Light Snow
1:35 AM 28.4 °F 19.7 °F 26.6 °F 93% 30.11 in 5.0 mi NNW 9.2 mph - N/A Snow Light Snow
1:55 AM 26.6 °F 17.5 °F 26.6 °F 100% 30.11 in 7.0 mi NNW 9.2 mph - N/A Snow Light Snow
2:15 AM 26.6 °F 17.5 °F 26.6 °F 100% 30.11 in 7.0 mi NNW 9.2 mph - N/A   Overcast
2:35 AM 26.6 °F 17.5 °F 26.6 °F 100% 30.11 in 7.0 mi NNW 9.2 mph - N/A   Overcast
2:55 AM 26.6 °F 17.5 °F 26.6 °F 100% 30.11 in 7.0 mi NNW 9.2 mph - N/A Snow Light Snow
3:35 AM 28.4 °F 20.4 °F 26.6 °F 93% 30.11 in 7.0 mi North 8.1 mph - N/A Snow Light Snow
3:55 AM 28.4 °F 19.7 °F 26.6 °F 93% 30.11 in 7.0 mi North 9.2 mph - N/A Snow Light Snow
4:15 AM 28.4 °F 19.7 °F 28.4 °F 100% 30.11 in 7.0 mi North 9.2 mph - N/A Snow Light Snow
4:35 AM 28.4 °F 20.4 °F 28.4 °F 100% 30.12 in 4.0 mi North 8.1 mph - N/A   Overcast
4:55 AM 28.4 °F 21.2 °F 28.4 °F 100% 30.12 in 3.0 mi NNE 6.9 mph - N/A Snow Light Snow
5:15 AM 28.4 °F 18.0 °F 26.6 °F 93% 30.12 in 4.0 mi NE 12.7 mph - N/A Snow Light Snow
5:35 AM 28.4 °F 19.7 °F 26.6 °F 93% 30.13 in 5.0 mi NE 9.2 mph - N/A Snow Light Snow
5:55 AM 26.6 °F 16.2 °F 26.6 °F 100% 30.14 in 5.0 mi NE 11.5 mph - N/A Snow Light Snow
6:15 AM 26.6 °F 16.8 °F 26.6 °F 100% 30.14 in 4.0 mi NE 10.4 mph - N/A Snow Light Snow
6:35 AM 26.6 °F 16.8 °F 23.0 °F 86% 30.15 in 10.0 mi NE 10.4 mph - N/A   Overcast
6:55 AM 26.6 °F 18.2 °F 21.2 °F 80% 30.16 in 10.0 mi NE 8.1 mph - N/A   Overcast
7:15 AM 26.6 °F 18.2 °F 21.2 °F 80% 30.16 in 7.0 mi NE 8.1 mph - N/A   Overcast
7:35 AM 26.6 °F 17.5 °F 21.2 °F 80% 30.17 in 10.0 mi NNE 9.2 mph - N/A   Overcast
8:15 AM 26.6 °F 19.1 °F 21.2 °F 80% 30.18 in 5.0 mi NNE 6.9 mph - N/A Snow Light Snow
8:35 AM 26.6 °F 19.1 °F 21.2 °F 80% 30.19 in 7.0 mi North 6.9 mph - N/A Snow Light Snow
9:15 AM 28.4 °F 18.5 °F 19.4 °F 69% 30.19 in 10.0 mi NNE 11.5 mph - N/A   Overcast
9:35 AM 28.4 °F 17.5 °F 19.4 °F 69% 30.19 in 10.0 mi NNE 13.8 mph - N/A   Overcast
9:55 AM 28.4 °F 18.5 °F 21.2 °F 74% 30.20 in 10.0 mi NNE 11.5 mph - N/A   Overcast
10:15 AM 28.4 °F 18.0 °F 19.4 °F 69% 30.20 in 10.0 mi NNE 12.7 mph 19.6 mph N/A   Overcast
10:35 AM 28.4 °F 18.5 °F 19.4 °F 69% 30.21 in 10.0 mi NE 11.5 mph - N/A   Overcast
11:15 AM 28.4 °F 18.5 °F 19.4 °F 69% 30.21 in 10.0 mi NNE 11.5 mph - N/A   Overcast
11:35 AM 30.2 °F 19.8 °F 19.4 °F 64% 30.21 in 10.0 mi NNE 13.8 mph - N/A   Overcast
11:55 AM 30.2 °F 21.9 °F 19.4 °F 64% 30.21 in 10.0 mi NNE 9.2 mph - N/A   Overcast
12:15 PM 30.2 °F 21.3 °F 19.4 °F 64% 30.21 in 10.0 mi NNE 10.4 mph - N/A   Overcast
12:35 PM 30.2 °F 20.2 °F 17.6 °F 60% 30.21 in 10.0 mi NE 12.7 mph - N/A   Overcast
12:55 PM 30.2 °F 20.8 °F 17.6 °F 60% 30.20 in 10.0 mi NNE 11.5 mph - N/A   Overcast
1:15 PM 30.2 °F 21.9 °F 19.4 °F 64% 30.20 in 10.0 mi NNE 9.2 mph - N/A   Overcast
1:35 PM 30.2 °F 20.8 °F 19.4 °F 64% 30.19 in 10.0 mi NNE 11.5 mph - N/A   Overcast
1:55 PM 30.2 °F 21.3 °F 19.4 °F 64% 30.19 in 10.0 mi NNE 10.4 mph - N/A   Overcast
2:15 PM 30.2 °F 20.8 °F 19.4 °F 64% 30.19 in 10.0 mi NNE 11.5 mph - N/A   Overcast
2:35 PM 30.2 °F 21.3 °F 19.4 °F 64% 30.20 in 10.0 mi North 10.4 mph - N/A   Overcast
2:55 PM 30.2 °F 21.3 °F 19.4 °F 64% 30.20 in 10.0 mi North 10.4 mph - N/A   Overcast
3:15 PM 30.2 °F 22.6 °F 19.4 °F 64% 30.20 in 10.0 mi North 8.1 mph - N/A   Overcast
3:35 PM 30.2 °F 23.4 °F 17.6 °F 60% 30.21 in 10.0 mi North 6.9 mph - N/A   Overcast
3:55 PM 30.2 °F 21.3 °F 19.4 °F 64% 30.21 in 10.0 mi North 10.4 mph - N/A   Overcast
4:15 PM 30.2 °F 22.6 °F 19.4 °F 64% 30.22 in 10.0 mi NNE 8.1 mph - N/A   Overcast
4:35 PM 30.2 °F 22.6 °F 21.2 °F 69% 30.22 in 10.0 mi NE 8.1 mph - N/A   Overcast
4:55 PM 28.4 °F 20.4 °F 21.2 °F 74% 30.23 in 10.0 mi NE 8.1 mph - N/A   Overcast
5:15 PM 28.4 °F 20.4 °F 21.2 °F 74% 30.23 in 10.0 mi NE 8.1 mph - N/A   Overcast
5:35 PM 28.4 °F 19.7 °F 21.2 °F 74% 30.24 in 10.0 mi NNE 9.2 mph - N/A   Overcast
5:55 PM 28.4 °F 19.7 °F 21.2 °F 74% 30.24 in 10.0 mi NNE 9.2 mph - N/A   Overcast
6:15 PM 28.4 °F 21.2 °F 21.2 °F 74% 30.24 in 10.0 mi NNE 6.9 mph - N/A   Overcast
6:35 PM 28.4 °F 20.4 °F 21.2 °F 74% 30.25 in 10.0 mi North 8.1 mph - N/A   Overcast
6:55 PM 28.4 °F 20.4 °F 21.2 °F 74% 30.26 in 10.0 mi North 8.1 mph - N/A   Overcast
7:15 PM 28.4 °F 21.2 °F 21.2 °F 74% 30.26 in 10.0 mi North 6.9 mph - N/A   Overcast
7:35 PM 26.6 °F 17.5 °F 21.2 °F 80% 30.26 in 10.0 mi North 9.2 mph - N/A   Overcast
8:15 PM 26.6 °F 17.5 °F 21.2 °F 80% 30.27 in 10.0 mi North 9.2 mph - N/A   Overcast
8:35 PM 26.6 °F 17.5 °F 21.2 °F 80% 30.27 in 10.0 mi North 9.2 mph - N/A   Overcast
8:55 PM 26.6 °F 18.2 °F 21.2 °F 80% 30.27 in 10.0 mi North 8.1 mph - N/A   Overcast
9:15 PM 26.6 °F 17.5 °F 21.2 °F 80% 30.27 in 10.0 mi North 9.2 mph - N/A   Overcast
9:35 PM 26.6 °F 17.5 °F 21.2 °F 80% 30.27 in 10.0 mi North 9.2 mph - N/A   Overcast
9:55 PM 26.6 °F 17.5 °F 21.2 °F 80% 30.27 in 10.0 mi North 9.2 mph - N/A   Overcast
10:15 PM 26.6 °F 17.5 °F 21.2 °F 80% 30.27 in 10.0 mi North 9.2 mph - N/A   Overcast
10:35 PM 26.6 °F 16.8 °F 21.2 °F 80% 30.27 in 10.0 mi North 10.4 mph - N/A   Overcast
10:55 PM 26.6 °F 18.2 °F 21.2 °F 80% 30.27 in 10.0 mi North 8.1 mph - N/A   Overcast
11:15 PM 26.6 °F 17.5 °F 21.2 °F 80% 30.27 in 10.0 mi North 9.2 mph - N/A   Overcast
11:35 PM 26.6 °F 18.2 °F 21.2 °F 80% 30.26 in 10.0 mi NNW 8.1 mph - N/A   Overcast
11:55 PM 26.6 °F 18.2 °F 21.2 °F 80% 30.26 in 10.0 mi NNW 8.1 mph - N/A   Overcast